This is the latest recevied weather packets stored in our database for station/object SQ7FJB-2. If no packets are shown the sender has not sent any weather packets the latest 10 day(s).
| Time | Temp. | Humidity | Pressure | Rain* | Wind** | Luminosity | Snow |
|---|---|---|---|---|---|---|---|
| 1777647223 | 20° C | 35% | 1023.4 hPa | 0 mm | - | - | - |
| 1777646610 | 20° C | 36% | 1023.5 hPa | 0 mm | - | - | - |
| 1777646002 | 20° C | 37% | 1023.6 hPa | 0 mm | - | - | - |
| 1777645398 | 20° C | 37% | 1023.6 hPa | 0 mm | - | - | - |
| 1777644798 | 19.44° C | 38% | 1023.6 hPa | 0 mm | - | - | - |
| 1777644197 | 20° C | 38% | 1023.6 hPa | 0 mm | - | - | - |
| 1777643586 | 20° C | 39% | 1023.7 hPa | 0 mm | - | - | - |
| 1777642985 | 20° C | 40% | 1023.7 hPa | 0 mm | - | - | - |
| 1777642385 | 19.44° C | 40% | 1023.8 hPa | 0 mm | - | - | - |
| 1777641774 | 19.44° C | 38% | 1023.8 hPa | 0 mm | - | - | - |
| 1777641173 | 19.44° C | 42% | 1023.8 hPa | 0 mm | - | - | - |
| 1777640573 | 19.44° C | 40% | 1023.9 hPa | 0 mm | - | - | - |
| 1777639961 | 18.89° C | 42% | 1024.1 hPa | 0 mm | - | - | - |
| 1777639360 | 18.89° C | 41% | 1024.2 hPa | 0 mm | - | - | - |
| 1777638762 | 18.89° C | 43% | 1024.3 hPa | 0 mm | - | - | - |
| 1777638148 | 18.89° C | 43% | 1024.3 hPa | 0 mm | - | - | - |
| 1777637548 | 18.89° C | 41% | 1024.4 hPa | 0 mm | - | - | - |
| 1777636947 | 18.89° C | 44% | 1024.4 hPa | 0 mm | - | - | - |
| 1777636348 | 18.33° C | 43% | 1024.4 hPa | 0 mm | - | - | - |
| 1777635735 | 18.89° C | 44% | 1024.5 hPa | 0 mm | - | - | - |
| 1777635135 | 17.78° C | 42% | 1024.6 hPa | 0 mm | - | - | - |
| 1777634523 | 18.33° C | 42% | 1024.6 hPa | 0 mm | - | - | - |
| 1777634198 | 18.33° C | 43% | 1024.6 hPa | 0 mm | - | - | - |
| 1777633598 | 18.33° C | 43% | 1024.7 hPa | 0 mm | - | - | - |
| 1777632985 | 18.33° C | 44% | 1024.7 hPa | 0 mm | - | - | - |
* Rain latest hour (hover to see other rain measurements)
** Current wind speed in m/s (hover to see current wind gust speed)